{"data":{"norad_id":81693,"intl_designator":"","name":"UNKNOWN","alt_names":[],"object_type":"UNKNOWN","status":"UNKNOWN","operator":null,"country":null,"launch_date":null,"launch_site_code":null,"launch_vehicle":null,"mission":null,"orbit_class":"UNKNOWN","rcs_meters":null,"size_class":null,"mass_kg":null,"dimensions":null,"purposes":[],"wikipedia_slug":null,"has_3d_model":false,"image_url":null,"decayed_at":null,"tle_current":{"epoch":"2026-08-23T08:55:40.701504Z","epoch_age_seconds":2444785,"freshness":"OLD","line1":"1 81693U          26235.37199886  .00000298  00000+0  24024-2 0  9998","line2":"2 81693 101.1206 274.3301 0372464 325.3086  32.4186 12.26233479998855","mean_motion":12.26233479,"eccentricity":0.0372464,"inclination_deg":101.1206,"raan_deg":274.3301,"arg_perigee_deg":325.3086,"mean_anomaly_deg":32.4186,"bstar":0.0024024,"rev_number":99885,"period_min":117.43277480683,"perigee_km":1269.6340800712,"apogee_km":1861.3783036332,"semimajor_km":7943.6431918522,"source":"CELESTRAK","updated_at":"2026-09-20T09:00:32.394055Z"}}}